{"data":{"norad_id":57900,"epoch":"2026-09-20T10:04:02.501760Z","epoch_age_seconds":141398,"freshness":"FRESH","line1":"1 57900U 23146K   26263.41947340  .00000920  00000+0  42969-4 0  9992","line2":"2 57900  43.0054 294.8120 0001697 268.4120  91.6538 15.27582276165774","mean_motion":15.27582276,"eccentricity":0.0001697,"inclination_deg":43.0054,"raan_deg":294.812,"arg_perigee_deg":268.412,"mean_anomaly_deg":91.6538,"bstar":4.2969e-5,"rev_number":16577,"period_min":94.266608262218,"perigee_km":481.87793876136,"apogee_km":484.2066230093,"semimajor_km":6861.1792808853,"source":"CELESTRAK","updated_at":"2026-09-21T09:00:33.722269Z"}}